Location: �terpigny
(49.8910°N, 2.9249°E)
Time: 06:39:47
(UTC+00:00)

NANOSAT C BR1 - Pass Details

Date: 05 July 2022
Orbit: 584 x 599 km, 98.0° (Epoch: 14 August)

Event Time Altitude Azimuth Distance (km) Brightness Sun altitude
Rises 01:45:47 0° 17° (NNE) 2,854 ? -13.1°
Reaches altitude 10° 01:48:00 10° 22° (NNE) 1,949 ? -13.0°
Maximum altitude 01:52:10 55° 101° (E) 727 ? -12.6°
Enters shadow 01:55:39 14° 177° (S) 1,683 ? -12.4°
